Погода в Семенихино

Россия / Орловская область     52°33′25″N   37°31′44″E
темп.,
°C
ветер,
м/с
пор.,
м/с
влажн.,
%
обл.,
%
осадки,
мм/ч
давл.,
гПа
погр.,
м
8 мая, сб
сб800:00+9ююв51271100 0.0 1013266
03:00+9ююв61569100 0.0 1012540
06:00+9ююв81690100 2.8 1011719
09:00+9ююв81792100 6.6 1009683
12:00+10ююв81790100 2.5 1007854
15:00+10ю81695100 6.8 10051044
18:00+11ю71494100 2.8 1003765
21:00+9зюз51193100 3.3 1005513
9 мая, вс
вс900:00+7з7994100 0.0 1005672
03:00+3зсз81596100 0.2 1009730
06:00+3зсз91496100 0.4 1011878
09:00+5сз71182100 0.4 10141016
12:00+7сз7967100 0.1 10161432
15:00+8сз8106447 0.1 10181536
18:00+7ссз71168100 0.1 10211335
21:00+5сз38824 0.1 1023134
10 мая, пн
пн1000:00+4сз411815 0.0 1024201
03:00+3ссз411810 0.0 1026212
06:00+3ссз411790 0.0 1027247
09:00+9с610590 0.0 1027767
12:00+12ссв710473 0.0 10271602
15:00+13ссв811465 0.0 10261683
18:00+12ссв712614 0.0 10261371
21:00+9ссв6156518 0.0 1026540
11 мая, вт
вт1100:00+8ссв7166754 0.0 1026561
03:00+7св7166693 0.0 1025495
06:00+7ссв7167530 0.0 1025451
09:00+9св71576100 0.0 1025516
12:00+10всв71388100 0.3 1025634
15:00+14в8117483 0.3 10241116
18:00+15в598187 0.3 1024908
21:00+11вюв4787100 1.9 1024368
12 мая, ср
ср1200:00+9в3796100 2.1 1024322
03:00+8в3597100 5.6 1023236
06:00+8в3695100 1.6 1023248
09:00+12вюв46780 1.8 1023551
12:00+15в456239 0.0 10221435
15:00+16в4559100 0.1 10211486
18:00+16всв467377 0.0 1019463
21:00+12всв369582 0.1 1019125